Midlothian, TX

5:38 AM CST on February 08, 2016 (GMT -0600)
Midlothian

Weather History for KJWY - November, 2012

Change the Weather History Date:

Wednesday, November 7, 2012

  Actual Average (KRBD) Record (KRBD)
Temperature  
Mean Temperature 58 °F -  
Max Temperature 71 °F 65 °F 84 °F (2005)
Min Temperature 46 °F 48 °F 36 °F (1997)
Degree Days  
Heating Degree Days 6    
Growing Degree Days 8 (Base 50)    
Moisture  
Dew Point 36 °F    
Average Humidity 48    
Maximum Humidity 81    
Minimum Humidity 21    
Precipitation  
Precipitation 0.00 in - - ()
Sea Level Pressure  
Sea Level Pressure 30.15 in    
Wind  
Wind Speed 3 mph (ENE)    
Max Wind Speed 6 mph    
Max Gust Speed -    
Visibility 10 miles    
Events      
Averages and records for this station are not official NWS values.
T = Trace of Precipitation, MM = Missing Value Source: NWS Daily Summary

Daily Weather History Graph

Daily Weather History Graph

Search for Another Location

Airport or City:

Trip Planner

Search our weather history database for the weather conditions in past years. The results will help you decide how hot, cold, wet, or windy it might be!

Date:

Astronomy

Nov. 07, 2012 Rise Set
Actual Time 6:50 AM CST 5:31 PM CST
Civil Twilight 6:24 AM CST 5:57 PM CST
Nautical Twilight 5:55 AM CST 6:26 PM CST
Astronomical Twilight 5:26 AM CST 6:55 PM CST
Moon 12:08 AM CST (11/7) 1:20 PM CST (11/7)
Length of Visible Light 11h 32m
Length of Day
10h 41m
Last Quarter, 43% of the Moon is Illuminated
Nov 7
Last Quarter
Nov 13
New
Nov 20
First Quarter
Nov 28
Full
Dec 6
Last Quarter

Hourly Weather History & Observations

Time (CST) Temp. Dew Point Humidity Pressure Visibility Wind Dir Wind Speed Gust Speed Precip Events Conditions
12:15 AM 50.0 °F 41.0 °F 71% 30.14 in 10.0 mi NNW 3.5 mph - N/A   Clear
12:35 AM 50.0 °F 41.0 °F 71% 30.15 in 10.0 mi Calm Calm - N/A   Clear
1:15 AM 48.2 °F 41.0 °F 76% 30.15 in 10.0 mi NW 3.5 mph - N/A   Clear
1:35 AM 50.0 °F 41.0 °F 71% 30.15 in 10.0 mi NW 4.6 mph - N/A   Clear
1:55 AM 48.2 °F 41.0 °F 76% 30.16 in 10.0 mi NW 5.8 mph - N/A   Clear
2:15 AM 50.0 °F 41.0 °F 71% 30.16 in 10.0 mi NW 4.6 mph - N/A   Clear
2:55 AM 50.0 °F 41.0 °F 71% 30.16 in 10.0 mi NW 3.5 mph - N/A   Clear
3:15 AM 48.2 °F 41.0 °F 76% 30.16 in 10.0 mi Calm Calm - N/A   Clear
3:35 AM 46.4 °F 41.0 °F 81% 30.16 in 10.0 mi Calm Calm - N/A   Clear
3:55 AM 46.4 °F 41.0 °F 81% 30.16 in 10.0 mi Calm Calm - N/A   Clear
4:15 AM 46.4 °F 41.0 °F 81% 30.16 in 10.0 mi Calm Calm - N/A   Clear
4:35 AM 48.2 °F 41.0 °F 76% 30.15 in 10.0 mi NNE 3.5 mph - N/A   Clear
7:15 AM 48.2 °F 37.4 °F 66% 30.18 in 10.0 mi North 3.5 mph - N/A   Clear
7:35 AM 50.0 °F 41.0 °F 71% 30.19 in 10.0 mi North 4.6 mph - N/A   Clear
7:55 AM 53.6 °F 41.0 °F 62% 30.20 in 10.0 mi North 4.6 mph - N/A   Clear
8:35 AM 59.0 °F 41.0 °F 51% 30.21 in 10.0 mi North 3.5 mph - N/A   Clear
8:55 AM 60.8 °F 37.4 °F 42% 30.21 in 10.0 mi NNE 4.6 mph - N/A   Clear
9:15 AM 62.6 °F 33.8 °F 34% 30.21 in 10.0 mi NE 3.5 mph - N/A   Clear
9:35 AM 64.4 °F 32.0 °F 30% 30.22 in 10.0 mi East 5.8 mph - N/A   Clear
9:55 AM 64.4 °F 32.0 °F 30% 30.22 in 10.0 mi ENE 4.6 mph - N/A   Clear
10:15 AM 66.2 °F 33.8 °F 30% 30.21 in 10.0 mi NE 3.5 mph - N/A   Clear
10:35 AM 68.0 °F 32.0 °F 26% 30.21 in 10.0 mi East 3.5 mph - N/A   Clear
10:55 AM 68.0 °F 30.2 °F 24% 30.20 in 10.0 mi East 3.5 mph - N/A   Clear
11:15 AM 68.0 °F 30.2 °F 24% 30.20 in 10.0 mi Calm Calm - N/A   Clear
11:35 AM 68.0 °F 28.4 °F 23% 30.19 in 10.0 mi ESE 3.5 mph - N/A   Clear
11:55 AM 69.8 °F 28.4 °F 21% 30.18 in 10.0 mi ESE 4.6 mph - N/A   Clear
12:15 PM 69.8 °F 28.4 °F 21% 30.17 in 10.0 mi ESE 4.6 mph - N/A   Unknown
12:35 PM 69.8 °F 28.4 °F 21% 30.15 in 10.0 mi Calm Calm - N/A   Clear
1:15 PM 71.6 °F 30.2 °F 22% 30.13 in 10.0 mi NE 3.5 mph - N/A   Clear
2:15 PM 71.6 °F 32.0 °F 23% 30.10 in 10.0 mi Calm Calm - N/A   Clear
4:35 PM 71.6 °F 33.8 °F 25% 30.10 in 10.0 mi East 3.5 mph - N/A   Clear
4:55 PM 69.8 °F 33.8 °F 27% 30.10 in 10.0 mi East 4.6 mph - N/A   Clear
5:35 PM 64.4 °F 35.6 °F 34% 30.10 in 10.0 mi ENE 3.5 mph - N/A   Clear
5:55 PM 64.4 °F 35.6 °F 34% 30.10 in 10.0 mi ENE 4.6 mph - N/A   Clear
6:15 PM 62.6 °F 35.6 °F 37% 30.10 in 10.0 mi East 4.6 mph - N/A   Clear
6:35 PM 60.8 °F 37.4 °F 42% 30.10 in 10.0 mi East 3.5 mph - N/A   Clear
6:55 PM 60.8 °F 37.4 °F 42% 30.10 in 10.0 mi East 3.5 mph - N/A   Clear
8:15 PM 57.2 °F 37.4 °F 48% 30.12 in 10.0 mi East 4.6 mph - N/A   Clear
8:35 PM 57.2 °F 37.4 °F 48% 30.12 in 10.0 mi East 3.5 mph - N/A   Clear
9:15 PM 55.4 °F 37.4 °F 51% 30.12 in 10.0 mi ESE 4.6 mph - N/A   Clear
9:55 PM 57.2 °F 37.4 °F 48% 30.12 in 10.0 mi ESE 4.6 mph - N/A   Clear
10:15 PM 57.2 °F 37.4 °F 48% 30.12 in 10.0 mi SE 4.6 mph - N/A   Clear
10:55 PM 55.4 °F 37.4 °F 51% 30.11 in 10.0 mi ESE 3.5 mph - N/A   Clear
11:15 PM 55.4 °F 37.4 °F 51% 30.11 in 10.0 mi ESE 3.5 mph - N/A   Clear
11:35 PM 55.4 °F 37.4 °F 51% 30.11 in 10.0 mi SE 4.6 mph - N/A   Clear
11:55 PM 53.6 °F 37.4 °F 54% 30.11 in 10.0 mi SE 4.6 mph - N/A   Clear